TimeCST,TemperatureF,Dew PointF,Humidity,Sea Level PressureIn,VisibilityMPH,Wind Direction,Wind SpeedMPH,Gust SpeedMPH,PrecipitationIn,Events,Conditions,WindDirDegrees,DateUTC
12:00 AM,77,75,91,29.92,12,ESE,3.5,,,,Scattered Clouds,120,2013-02-28 06:00:00
5:00 AM,75.2,73.4,94,29.89,6.2,SW,2.3,-,N/A,,Mostly Cloudy,220,2013-02-28 11:00:00
6:00 AM,74,73,94,29.92,12,Calm,Calm,,,,Partly Cloudy,,2013-02-28 12:00:00
6:00 AM,73.4,73.4,100,29.92,6.2,Calm,Calm,-,N/A,,Partly Cloudy,0,2013-02-28 12:00:00
7:00 AM,73.4,73.4,100,29.92,6.2,Calm,Calm,-,N/A,,Scattered Clouds,0,2013-02-28 13:00:00
8:00 AM,77.0,75.2,94,29.95,3.7,West,2.3,-,N/A,,Scattered Clouds,280,2013-02-28 14:00:00
9:00 AM,81,77,84,29.98,11,Calm,Calm,,,,Partly Cloudy,,2013-02-28 15:00:00
9:00 AM,80.6,77.0,89,29.97,6.2,Calm,Calm,-,N/A,,Scattered Clouds,0,2013-02-28 15:00:00
10:00 AM,80.6,77.0,89,29.98,6.2,Calm,Calm,-,N/A,,Mostly Cloudy,0,2013-02-28 16:00:00
11:00 AM,82.4,75.2,79,29.97,6.2,SE,3.5,-,N/A,,Mostly Cloudy,130,2013-02-28 17:00:00
12:00 PM,85,75,66,29.94,37,SSE,6.9,,,,Partly Cloudy,150,2013-02-28 18:00:00
12:00 PM,84.2,75.2,74,29.93,6.2,SSE,6.9,-,N/A,,Mostly Cloudy,150,2013-02-28 18:00:00
1:00 PM,86.0,75.2,70,29.91,6.2,East,6.9,-,N/A,,Scattered Clouds,90,2013-02-28 19:00:00
2:00 PM,86.0,75.2,70,29.89,6.2,ESE,5.8,-,N/A,,Partly Cloudy,110,2013-02-28 20:00:00
3:00 PM,85,75,64,29.88,11,East,9.2,,,,Scattered Clouds,90,2013-02-28 21:00:00
3:00 PM,86.0,75.2,70,29.87,6.2,East,9.2,-,N/A,,Partly Cloudy,90,2013-02-28 21:00:00
4:00 PM,84.2,75.2,74,29.86,6.2,East,6.9,-,N/A,,Scattered Clouds,100,2013-02-28 22:00:00
5:00 PM,84.2,73.4,70,29.86,6.2,ESE,5.8,-,N/A,,Scattered Clouds,120,2013-02-28 23:00:00
6:00 PM,81,74,74,29.89,11,Calm,Calm,,,,Partly Cloudy,,2013-03-01 00:00:00
6:00 PM,80.6,73.4,79,29.89,6.2,Calm,Calm,-,N/A,,Mostly Cloudy,0,2013-03-01 00:00:00